Regional Weather Roundup
Issued by NWS Kansas City/Pleasant Hill, MO

Home | Current Version | Previous Version | Graphics & Text | Print | Product List | Glossary Off
Versions: 1 2 3 4 5 6 7 8 9 10 11 12 13 14 15 16 17 18 19 20 21 22 23 24 25 26 27

000
ASUS43 KEAX 260210
RWREAX

WEATHER ROUNDUP FOR EASTERN KANSAS AND NORTHWEST MISSOURI
NATIONAL WEATHER SERVICE KANSAS CITY/PLEASANT HILL MO
900 PM CDT SAT MAR 25 2017

KSZ040-057-103>105-MOZ028-029-037-043-260300-
...KANSAS CITY METROPOLITAN AREA...

CITY           SKY/WX    TMP DP  RH WIND       PRES   REMARKS
K.C. INTL      CLOUDY    45  44  97 NW10      29.89R
K.C. DOWNTOWN  CLOUDY    49  45  86 NW9       29.88R
LEES SUMMIT    CLOUDY    50  46  86 NW12      29.88R
OLATHE - IXD   CLOUDY    46  44  93 NW13      29.90R
OLATHE - OJC   CLOUDY    47  46  97 NW14      29.88R
LAWRENCE       CLOUDY    46  43  89 NW12      29.92R

$$

MOZ001>008-011>017-020>025-030>033-038>040-044>046-053-054-260300-
...NORTHERN AND CENTRAL MISSOURI...

CITY           SKY/WX    TMP DP  RH WIND       PRES   REMARKS
ST. JOSEPH     CLOUDY    45  45 100 NW7       29.91R FOG
WARRENSBURG    CLOUDY    52  50  93 W6        29.85R
WHITEMAN AFB   RAIN      51  51 100 N13       29.84R
CLINTON        CLOUDY    50  50 100 SW10      29.87R
SEDALIA        RAIN      52  32  46 W12       29.84R
WARSAW         NOT AVBL
CHILLICOTHE      N/A     47  46  97 N6        29.87R
KIRKSVILLE     CLOUDY    49  48  97 N9        29.83S

$$

MOZ041-047>049-056>058-063>065-088>090-097-260300-
...EASTERN AND SOUTHERN MISSOURI...

CITY           SKY/WX    TMP DP  RH WIND       PRES   REMARKS
ST. LOUIS INTL MOCLDY    58  53  84 S8        29.84R
SPIRIT OF STL  CLOUDY    57  54  89 S5        29.83R
COLUMBIA       LGT RAIN  54  52  93 W17       29.82R
JEFFERSON CITY CLOUDY    56  51  84 SW7       29.83R
ROLLA          CLOUDY    51  49  92 SW18G25   29.85R
OSAGE BEACH    CLOUDY   N/A N/A N/A SW9       29.88R
SPRINGFIELD    CLOUDY    48  44  86 W13       29.90R
BRANSON        CLOUDY    48  46  93 W7        29.92R
JOPLIN         CLOUDY    47  44  90 W9        29.93R
WEST PLAINS    CLOUDY    51  47  86 W8        29.91R

$$

IAZ060-094-KSZ022-034>040-054-083-096-NEZ052-066-093-260300-
...KANSAS...SOUTHEAST NEBRASKA AND IOWA...

CITY           SKY/WX    TMP DP  RH WIND       PRES   REMARKS
TOPEKA         CLOUDY    46  43  89 N8        29.91R
MANHATTAN      CLOUDY    45  43  93 N5        29.93S
EMPORIA        CLOUDY    45  44  97 N8        29.91S
CHANUTE        CLOUDY    47  45  93 W9        29.92R
WICHITA        CLOUDY    45  41  86 NW8       29.93S
OMAHA          CLOUDY    42  37  82 N8        29.94R
LINCOLN        LGT RAIN  41  39  93 N10       29.96R WCI  35
FALLS CITY     CLOUDY    43  41  93 N6        29.92S
LAMONI         CLOUDY    43  42  97 N8        29.88S
DES MOINES     DRIZZLE   43  42  97 NE8       29.92R FOG

$$





USA.gov is the U.S. government's official web portal to all federal, state and local government web resources and services.